Weather History for KBWP - June, 2013

Change the Weather History Date:

Saturday, June 29, 2013

  Actual Average (KFFM) Record (KFFM)
Temperature  
Mean Temperature 69 °F -  
Max Temperature 78 °F 78 °F 95 °F (1970)
Min Temperature 60 °F 56 °F 43 °F (1959)
Cooling Degree Days 4    
Growing Degree Days 19 (Base 50)    
Moisture  
Dew Point 56 °F    
Average Humidity 64    
Maximum Humidity 88    
Minimum Humidity 39    
Precipitation  
Precipitation 0.00 in - - ()
Sea Level Pressure  
Sea Level Pressure 29.98 in    
Wind  
Wind Speed 11 mph (North)    
Max Wind Speed 16 mph    
Max Gust Speed 24 mph    
Visibility 10 miles    
Events      
Averages and records for this station are not official NWS values.
T = Trace of Precipitation, MM = Missing Value Source: NWS Daily Summary

Daily Weather History Graph

Daily Weather History Graph

Search for Another Location

Airport or City:

Trip Planner

Search our weather history database for the weather conditions in past years. The results will help you decide how hot, cold, wet, or windy it might be!

Date:

Astronomy

Jun. 29, 2013 Rise Set
Actual Time 5:37 AM CDT 9:22 PM CDT
Civil Twilight 4:58 AM CDT 10:00 PM CDT
Nautical Twilight 4:06 AM CDT 10:52 PM CDT
Astronomical Twilight 2:53 AM CDT 12:05 AM CDT
Moon 12:27 AM CDT (6/29) 1:16 PM CDT (6/29)
Length of Visible Light 17h 01m
Length of Day
15h 44m
Waning Gibbous, 55% of the Moon is Illuminated
Jun 29
Waning Gibbous
Jun 29
Last Quarter
Jul 8
New
Jul 15
First Quarter
Jul 22
Full

Hourly Weather History & Observations

Time (CDT) Temp. Dew Point Humidity Pressure Visibility Wind Dir Wind Speed Gust Speed Precip Events Conditions
12:15 AM 68.0 °F 55.4 °F 64% 29.92 in 10.0 mi North 12.7 mph - N/A   Clear
12:35 AM 66.2 °F 55.4 °F 68% 29.92 in 10.0 mi North 10.4 mph - N/A   Clear
12:55 AM 66.2 °F 55.4 °F 68% 29.92 in 10.0 mi NNW 10.4 mph 19.6 mph N/A   Clear
1:15 AM 64.4 °F 55.4 °F 73% 29.91 in 10.0 mi NNW 10.4 mph - N/A   Clear
1:35 AM 64.4 °F 55.4 °F 73% 29.91 in 10.0 mi NNW 9.2 mph 17.3 mph N/A   Clear
1:55 AM 64.4 °F 55.4 °F 73% 29.91 in 10.0 mi NNW 9.2 mph 16.1 mph N/A   Clear
2:15 AM 62.6 °F 55.4 °F 77% 29.91 in 10.0 mi NNW 9.2 mph - N/A   Clear
2:35 AM 62.6 °F 55.4 °F 77% 29.91 in 10.0 mi NNW 11.5 mph 17.3 mph N/A   Clear
2:55 AM 62.6 °F 55.4 °F 77% 29.91 in 10.0 mi NNW 9.2 mph - N/A   Clear
3:15 AM 60.8 °F 55.4 °F 82% 29.92 in 10.0 mi NNW 8.1 mph - N/A   Clear
3:35 AM 60.8 °F 55.4 °F 82% 29.92 in 10.0 mi NNW 9.2 mph - N/A   Clear
3:55 AM 60.8 °F 55.4 °F 82% 29.92 in 10.0 mi NNW 9.2 mph - N/A   Clear
4:15 AM 60.8 °F 55.4 °F 82% 29.92 in 10.0 mi NNW 8.1 mph - N/A   Clear
4:35 AM 60.8 °F 57.2 °F 88% 29.93 in 10.0 mi NNW 8.1 mph 16.1 mph N/A   Clear
4:55 AM 60.8 °F 55.4 °F 82% 29.94 in 10.0 mi NNW 9.2 mph - N/A   Clear
5:15 AM 60.8 °F 55.4 °F 82% 29.94 in 10.0 mi NNW 11.5 mph 16.1 mph N/A   Clear
5:35 AM 60.8 °F 55.4 °F 82% 29.95 in 10.0 mi NNW 10.4 mph - N/A   Clear
5:55 AM 60.8 °F 55.4 °F 82% 29.96 in 10.0 mi North 10.4 mph 17.3 mph N/A   Clear
6:15 AM 60.8 °F 57.2 °F 88% 29.96 in 10.0 mi North 10.4 mph 17.3 mph N/A   Clear
6:35 AM 60.8 °F 55.4 °F 82% 29.97 in 10.0 mi NNW 8.1 mph - N/A   Clear
6:55 AM 60.8 °F 57.2 °F 88% 29.98 in 10.0 mi North 10.4 mph - N/A   Mostly Cloudy
7:15 AM 60.8 °F 57.2 °F 88% 29.99 in 10.0 mi North 9.2 mph - N/A   Overcast
7:35 AM 62.6 °F 57.2 °F 82% 29.98 in 10.0 mi North 10.4 mph - N/A   Mostly Cloudy
7:55 AM 62.6 °F 57.2 °F 82% 29.99 in 10.0 mi NNW 13.8 mph 18.4 mph N/A   Scattered Clouds
8:15 AM 64.4 °F 57.2 °F 77% 29.99 in 10.0 mi North 11.5 mph 17.3 mph N/A   Clear
8:35 AM 62.6 °F 57.2 °F 82% 29.99 in 10.0 mi NNW 11.5 mph 17.3 mph N/A   Mostly Cloudy
8:55 AM 64.4 °F 59.0 °F 83% 30.00 in 10.0 mi North 12.7 mph - N/A   Overcast
9:15 AM 64.4 °F 57.2 °F 77% 30.00 in 10.0 mi North 11.5 mph - N/A   Mostly Cloudy
9:35 AM 64.4 °F 59.0 °F 83% 30.00 in 10.0 mi North 12.7 mph - N/A   Mostly Cloudy
9:55 AM 66.2 °F 57.2 °F 73% 30.00 in 10.0 mi North 10.4 mph - N/A   Overcast
10:15 AM 66.2 °F 57.2 °F 73% 30.00 in 10.0 mi North 9.2 mph - N/A   Overcast
10:35 AM 66.2 °F 59.0 °F 78% 30.00 in 10.0 mi North 11.5 mph - N/A   Mostly Cloudy
10:55 AM 69.8 °F 59.0 °F 68% 30.00 in 10.0 mi NNW 13.8 mph 17.3 mph N/A   Mostly Cloudy
11:15 AM 69.8 °F 59.0 °F 68% 30.00 in 10.0 mi North 12.7 mph 16.1 mph N/A   Scattered Clouds
11:35 AM 71.6 °F 57.2 °F 60% 30.00 in 10.0 mi North 16.1 mph - N/A   Clear
11:55 AM 71.6 °F 57.2 °F 60% 30.00 in 10.0 mi NNW 16.1 mph 20.7 mph N/A   Clear
12:15 PM 73.4 °F 57.2 °F 57% 30.00 in 10.0 mi North 16.1 mph 21.9 mph N/A   Clear
12:35 PM 73.4 °F 57.2 °F 57% 29.99 in 10.0 mi North 16.1 mph 21.9 mph N/A   Clear
12:55 PM 75.2 °F 57.2 °F 53% 29.99 in 10.0 mi North 15.0 mph 24.2 mph N/A   Clear
1:15 PM 75.2 °F 59.0 °F 57% 29.99 in 10.0 mi North 12.7 mph 21.9 mph N/A   Clear
1:35 PM 77.0 °F 55.4 °F 47% 29.99 in 10.0 mi North 16.1 mph 21.9 mph N/A   Scattered Clouds
1:55 PM 77.0 °F 55.4 °F 47% 29.99 in 10.0 mi North 13.8 mph - N/A   Scattered Clouds
2:15 PM 78.8 °F 53.6 °F 42% 29.99 in 10.0 mi North 13.8 mph - N/A   Scattered Clouds
2:35 PM 77.0 °F 51.8 °F 41% 29.99 in 10.0 mi NNE 12.7 mph 21.9 mph N/A   Scattered Clouds
2:55 PM 78.8 °F 53.6 °F 42% 29.99 in 10.0 mi NNE 13.8 mph 20.7 mph N/A   Scattered Clouds
3:15 PM 77.0 °F 51.8 °F 41% 29.99 in 10.0 mi NNE 13.8 mph 18.4 mph N/A   Scattered Clouds
3:35 PM 77.0 °F 53.6 °F 44% 29.99 in 10.0 mi North 11.5 mph - N/A   Scattered Clouds
3:55 PM 78.8 °F 51.8 °F 39% 29.99 in 10.0 mi North 11.5 mph 19.6 mph N/A   Scattered Clouds
4:15 PM 78.8 °F 51.8 °F 39% 29.99 in 10.0 mi North 12.7 mph - N/A   Scattered Clouds
4:35 PM 77.0 °F 53.6 °F 44% 29.99 in 10.0 mi North 16.1 mph 19.6 mph N/A   Scattered Clouds
4:55 PM 78.8 °F 51.8 °F 39% 29.99 in 10.0 mi North 15.0 mph 20.7 mph N/A   Scattered Clouds
5:15 PM 78.8 °F 53.6 °F 42% 29.99 in 10.0 mi North 13.8 mph 19.6 mph N/A   Scattered Clouds
5:35 PM 78.8 °F 53.6 °F 42% 29.99 in 10.0 mi North 10.4 mph 20.7 mph N/A   Scattered Clouds
5:55 PM 78.8 °F 53.6 °F 42% 29.99 in 10.0 mi North 11.5 mph 20.7 mph N/A   Scattered Clouds
6:15 PM 78.8 °F 53.6 °F 42% 29.99 in 10.0 mi North 13.8 mph 23.0 mph N/A   Scattered Clouds
6:35 PM 77.0 °F 53.6 °F 44% 29.98 in 10.0 mi North 15.0 mph 21.9 mph N/A   Clear
6:55 PM 77.0 °F 53.6 °F 44% 29.98 in 10.0 mi North 15.0 mph 19.6 mph N/A   Clear
7:15 PM 77.0 °F 53.6 °F 44% 29.98 in 10.0 mi North 11.5 mph 19.6 mph N/A   Clear
7:35 PM 77.0 °F 53.6 °F 44% 29.99 in 10.0 mi North 12.7 mph 19.6 mph N/A   Scattered Clouds
7:55 PM 73.4 °F 55.4 °F 53% 29.99 in 10.0 mi NE 8.1 mph 19.6 mph N/A   Scattered Clouds
8:15 PM 71.6 °F 55.4 °F 57% 29.99 in 10.0 mi NNE 5.8 mph - N/A   Clear
8:35 PM 71.6 °F 55.4 °F 57% 29.99 in 10.0 mi NE 9.2 mph - N/A   Clear
8:55 PM 71.6 °F 55.4 °F 57% 29.99 in 10.0 mi NE 9.2 mph - N/A   Clear
9:15 PM 69.8 °F 55.4 °F 60% 29.99 in 10.0 mi NNE 6.9 mph - N/A   Clear
9:35 PM 68.0 °F 55.4 °F 64% 30.00 in 10.0 mi NNE 4.6 mph - N/A   Clear
9:55 PM 69.8 °F 55.4 °F 60% 30.01 in 10.0 mi NE 4.6 mph - N/A   Clear
10:15 PM 68.0 °F 55.4 °F 64% 30.01 in 10.0 mi NNE 4.6 mph - N/A   Scattered Clouds
10:35 PM 68.0 °F 55.4 °F 64% 30.02 in 10.0 mi NE 3.5 mph - N/A   Clear
10:55 PM 66.2 °F 55.4 °F 68% 30.02 in 7.0 mi NE 3.5 mph - N/A   Clear
11:15 PM 66.2 °F 55.4 °F 68% 30.02 in 10.0 mi NE 3.5 mph - N/A   Clear
11:35 PM 66.2 °F 55.4 °F 68% 30.03 in 10.0 mi East 6.9 mph - N/A   Clear
11:55 PM 64.4 °F 55.4 °F 73% 30.04 in 10.0 mi East 5.8 mph - N/A   Clear